SCP
0 0 0 0 0 0 0 0 0 0 0 0 0 0 0 0 -0 -0 -0 -0 0 0 0 0 0 0 0 0 0 0 0 0 0 0 0 0 0 0 0 0 0 0 0 0
0 0 0 0 0 0 0 0 0 0 0 0 0 0 0 0 0 0 0 0 0 0 0 0 0 0 0 0 0 0 0 0 0 0 0 0 0 0 0 0 0 0 0 0
0 0 0 0 0 0 0 0 0 0 -0 0 0 0 0 0 0 0 0 0 0 0 0 0 0 0 0 0 0 0 0 0 0 0 0 0 0 0 0 0 0 0 0 0
0 0 0 0 0 0 0 0 0 0 0 0 0 0 0 0 0 0 0 0 0 0 0 0 0 0 0 0 0 0 0 0 0 0 0 0 0 0 0 0 0 0 0 0
0 0 0 0 0 0 0 0 0 0 0 0 0 0 0 0 0 0 0 0 0 0 0 0 0 0 0 0 0 0 0 0 0 0 0 0 0 0 0 0 0 0 0 0
0 0 0 0 0 0 0 -0 0 0 0 0 0 0 0 0 0 0 0 0 0 0 0 0 0 0 0 0 0 0 0 0 0 0 0 0 0 0 0 0 0 0 0 0
0 0 0 0 0 0 0 0 0 0 0 0 0 0 0 0 0 0 0 -0 0 0 0 0 0 0 0 0 0 0 0 0 0 0 0 0 0 0 0 0 0 0 0 0
0 0 0 0 0 0 0 0 0 0 0 0 0 0 0 0 0 0 0 0 0 0 0 0 0 0 0 0 0 0 0 0 0 0 0 0 0 0 0 0 0 0 0 0
0 0 0 0 0 0 0 0 0 0 0 0 0 0 0 0 0 0 0 0 0 0 0 0 0 0 0 0 0 0 0 0 0 0 0 0 0 0 0 0 0 0 0 0
0 0 0 0 0 0 0 0 0 0 0 0 0 0 0 0 0 0 0 0 0 0 0 0 0 0 0 0 0 0 0 0 0 0 0 0 0 0 0 0 0 0 0 0
0 0 0 0 0 0 0 0 0 0 0 0 0 0 0 0 0 0 0 0 0 0 0 0 0 0 0 0 0 0 0 0 0 0 0 0 0 0 0 0 0 0 0 0
0 0 0 0 0 0 0 0 0 0 0 0 0 0 0 0 0 0 0 0 0 0 0 0 0 0 0 0 0 0 0 0 0 0 0 0 0 0 0 0 0 0 0 0
0 0 0 0 0 0 0 0 0 0 0 0 0 0 0 0 0 0 0 0 0 0 0 0 0 0 0 0 0 0 0 0 0 0 0 0 0 0 0 0 0 0 0 0
0 0 0 0 0 0 0 0 0 0 0 0 0 0 0 0 0 0 0 0 0 0 0 0 0 0 0 0 0 0 0 0 0 0 0 0 0 0 0 0 0 0 0 0
0 0 0 0 0 0 0 0 0 0 0 0 0 0 0 0 0 0 0 0 0 0 0 0 0 0 0 0 0 0 0 0 0 0 0 0 0 0 0 0 0 0 0 0
0 0 0 0 0 0 0 0 0 0 0 0 0 0 0 0 0 0 0 0 0 0 0 0 0 0 0 0 0 0 0 0 0 0 0 0 0 0 0 0 0 0 0 0
0 0 0 0 0 0 0 0 0 0 0 0 0 0 0 0 0 0 0 0 0 0 0 0 0 0 0 0 0 0 0 0 0 0 0 0 0 0 0 0 0 0 0 0
0 0 0 0 0 0 0 0 0 0 0 0 0 0 0 0 0 0 0 0 0 0 0 0 0 0 0 0 0 0 0 0 0 0 0 0 0 0 0 0 0 0 0 0
0 0 0 0 0 0 0 0 0 0 0 0 0 0 0 0 0 0 0 0 0 0 0 0 0 0 0 0 0 0 0 0 0 0 0 0 0 0 0 0 0 0 0 0
0 0 0 0 0 0 0 0 0 0 0 0 0 0 0 0 0 0 0 0 0 0 0 0 0 0 0 0 0 0 0 0 0 0 0 0 0 0 0 0 0 0 0 0
0 0 0 0 0 0 0 0 0 0 0 0 0 0 0 0 0 0 0 0 0 0 0 0 0 0 0 0 0 0 0 0 0 0 0 0 0 0 0 0 0 0 0 0
0 0 0 0 0 0 0 0 0 0 0 0 0 0 0 0 0 0 0 0 0 0 0 0 0 0 0 0 0 0 0 0 0 0 0 0 0 0 0 0 0 0 0 0
0 0 0 0 0 0 0 0 0 0 0 0 0 0 0 0 0 0 0 0 0 0 0 0 0 0 0 0 0 0 0 0 0 0 0 0 0 0 0 0 0 0 0 0
0 0 0 0 0 0 0 0 0 0 0 0 0 0 0 0 0 0 0 0 0 0 0 0 0 0 0 0 0 0 0 0 0 0 0 0 0 0 0 0 0 0 0 0
0 0 0 0 0 0 0 0 0 0 0 0 0 0 0 0 0 0 0 0 0 0 0 0 0 0 0 0 0 0 0 0 0 0 0 0 0 0 0 0 0 0 0 0
0 0 0 0 0 0 0 0 0 0 0 0 0 0 0 0 0 0 0 0 0 0 0 0 0 0 0 0 0 0 0 0 0 0 0 0 0 0 0 0 0 0 0 0
0 0 0 0 0 0 0 0 0 0 0 0 0 0 0 0 0 0 0 0 0 0 0 0 0 0 0 0 0 0 0 0 0 0 0 0 0 0 0 0 0 0 0 0
Wind_Speed_500mb
4 9 11 13 22 24 24 45 24 47 37 57 19 22 37 45 41 35 35 39 45 53 56 54 52 49 46 45 46 46 48 46 44 44 48 58 61 64 62 58 51 51 52 50
5 6 10 2 20 38 43 42 27 42 26 29 14 40 46 67 45 52 46 54 44 48 54 56 52 49 48 49 48 48 49 47 47 49 57 62 65 64 62 58 56 55 51 45
25 12 11 10 42 25 18 22 34 33 69 13 15 20 49 64 45 56 74 63 46 44 58 59 56 52 53 52 51 51 49 50 53 56 61 65 65 63 61 62 60 56 50 45
7 8 19 26 22 36 44 40 37 43 8 16 44 65 64 63 58 69 65 52 44 41 51 62 59 57 55 55 55 54 55 57 59 62 65 66 64 63 64 61 57 53 48 42
10 6 17 45 9 13 19 49 34 36 20 23 48 34 60 75 62 65 68 63 56 51 49 55 62 62 60 61 61 62 63 63 63 64 67 67 68 67 64 60 56 50 43 38
6 15 30 3 34 34 11 44 24 36 31 32 34 15 32 59 50 59 64 64 61 50 50 49 54 65 68 69 69 70 69 68 66 66 67 67 68 67 63 57 50 47 43 39
11 14 17 13 11 46 20 14 21 32 47 33 21 42 38 29 27 29 34 42 46 47 51 51 48 59 73 74 76 71 69 68 70 70 70 68 66 63 60 56 53 49 43 37
7 22 39 14 9 42 17 20 12 11 5 27 46 46 37 37 36 33 33 33 36 38 40 45 46 52 70 78 75 70 70 73 75 73 72 69 66 63 60 57 54 49 42 34
25 18 4 41 11 28 17 19 17 9 6 6 8 11 17 24 29 30 29 28 30 33 32 34 40 46 60 71 75 72 75 77 77 75 72 70 67 65 64 60 55 48 37 29
9 8 11 33 37 31 23 18 15 13 11 9 9 11 12 14 16 20 21 18 20 21 22 27 33 41 53 62 68 72 78 80 78 77 75 71 69 67 65 62 55 39 34 45
5 3 2 19 51 32 28 17 14 12 11 9 7 6 1 3 7 10 12 13 12 10 8 13 23 34 44 50 60 70 75 77 77 77 75 74 73 71 65 54 40 40 52 36
14 22 10 9 46 31 21 23 20 16 16 14 13 12 12 10 9 8 9 11 11 9 7 6 12 22 32 40 50 62 71 73 74 74 76 76 75 70 61 50 56 59 47 49
7 26 12 11 32 35 34 31 25 21 18 16 16 15 14 16 15 12 10 11 12 12 10 7 5 8 17 27 40 51 60 66 71 74 72 70 70 71 70 67 65 64 59 52
36 34 21 36 23 33 32 29 24 22 24 24 22 20 18 19 17 15 16 17 15 13 11 10 8 5 11 24 36 47 55 61 65 68 75 78 79 79 70 75 74 65 50 64
22 10 15 25 39 33 32 26 28 28 23 18 16 15 14 14 14 17 17 18 17 16 13 9 6 7 11 20 33 45 53 60 66 70 74 77 76 74 73 71 70 66 63 60
20 16 23 33 35 32 29 25 25 24 20 16 10 7 8 11 12 13 14 15 15 14 13 12 7 8 12 19 28 37 44 49 55 60 66 69 70 73 74 74 73 72 71 65
43 36 43 47 43 41 37 31 24 19 15 11 8 7 8 7 10 12 12 12 13 13 13 13 12 13 15 18 22 28 37 44 50 57 62 66 70 74 75 76 76 75 72 66
34 42 39 36 33 31 28 23 18 14 10 7 4 2 4 8 11 11 11 10 12 14 15 15 17 18 19 20 22 27 34 41 48 54 59 66 70 72 73 75 76 76 74 70
33 33 30 25 23 18 16 13 9 5 3 2 4 5 7 10 11 12 14 16 17 18 19 20 22 23 25 26 28 31 34 40 47 54 59 64 68 71 74 76 77 76 75 74
23 20 19 16 15 13 9 6 4 3 2 2 3 3 3 4 6 8 10 13 16 19 22 25 27 29 31 33 34 36 38 42 47 51 57 64 68 71 74 75 76 78 75 78
20 20 18 16 14 13 11 10 9 9 11 13 11 9 8 8 9 10 12 13 14 15 19 22 24 25 27 30 33 35 38 40 43 47 53 59 64 70 75 78 79 79 79 79
19 18 16 15 13 13 15 17 16 14 11 8 4 4 7 9 12 14 16 18 19 21 23 26 29 31 33 35 37 38 40 43 45 48 52 57 62 66 69 71 73 73 74 75
18 17 17 16 16 15 15 12 9 5 2 4 7 11 13 15 18 20 23 25 27 30 33 34 37 39 41 43 45 46 47 47 50 53 55 56 58 61 64 65 65 67 67 68
16 17 19 17 16 14 12 10 8 8 9 11 14 17 20 24 30 32 34 38 41 42 44 44 44 46 47 46 47 48 50 51 52 53 53 55 54 54 54 54 55 55 56 57
11 11 12 12 12 13 13 13 12 13 15 17 21 25 29 33 36 40 43 45 46 46 45 45 47 48 48 47 47 48 48 49 49 49 48 47 46 46 46 47 48 50 51 52
7 10 12 14 15 15 15 15 16 17 20 23 28 30 33 37 40 45 50 53 51 49 47 45 44 44 44 44 44 44 44 43 43 43 42 41 41 41 42 43 44 45 47 47
14 16 17 17 17 16 14 13 14 19 20 19 21 25 27 29 29 30 36 42 43 41 39 38 37 37 36 35 34 33 32 33 34 35 35 36 36 36 37 39 40 41 42 44
Wind_Direction_500mb
17 144 144 172 191 182 194 221 205 240 229 260 214 258 281 294 297 289 288 280 262 237 227 224 222 221 225 225 224 219 214 209 202 198 193 191 195 197 195 204 205 198 194 188
223 119 140 184 211 201 211 221 222 241 267 255 259 245 254 261 270 277 278 286 269 247 235 230 228 225 222 220 218 214 212 206 199 195 191 193 195 197 198 198 193 192 188 188
235 148 91 309 226 206 205 207 208 231 244 160 233 224 245 260 260 277 279 270 272 261 244 236 233 228 221 217 215 213 210 207 203 199 196 195 196 197 196 193 190 188 187 189
160 83 211 261 165 215 224 234 221 244 249 213 234 249 265 271 266 266 272 270 272 278 257 245 235 227 221 217 216 213 210 207 205 202 199 197 197 195 193 192 191 191 191 192
160 186 300 273 209 154 179 248 232 244 241 228 254 264 263 259 260 265 267 275 276 273 271 254 242 231 223 219 216 213 210 207 204 201 198 196 194 193 193 193 194 195 194 198
142 209 230 344 207 170 125 268 190 201 216 217 197 225 251 262 265 262 264 270 273 274 275 266 245 234 227 222 218 216 211 207 203 200 199 199 198 196 197 196 197 198 200 201
178 222 273 238 180 156 190 253 208 215 230 213 197 231 254 253 266 274 271 269 271 269 267 266 251 233 228 225 224 220 213 207 205 203 203 202 201 201 199 198 198 201 204 208
101 218 253 164 81 179 205 205 194 206 226 222 241 246 254 270 278 282 282 278 279 276 269 258 250 239 230 228 226 219 213 209 206 204 203 202 203 201 200 201 203 204 207 211
188 210 226 186 185 204 184 205 221 212 206 231 272 286 282 282 284 286 286 286 281 280 272 259 248 241 235 231 226 219 213 210 207 205 205 204 204 205 205 204 206 207 214 233
106 223 207 200 208 213 208 208 211 223 218 224 246 268 286 301 303 309 315 309 293 285 273 263 253 243 235 232 226 219 215 211 208 207 206 207 207 209 210 209 206 216 231 231
291 288 324 232 212 215 203 189 182 185 186 188 203 201 179 0 339 334 326 326 320 311 283 257 254 250 243 234 225 218 214 212 209 209 210 210 210 212 211 207 231 243 229 232
215 193 165 203 212 199 179 174 167 169 154 143 135 124 110 92 79 61 46 43 41 32 3 309 269 255 246 234 224 218 214 212 212 213 213 213 214 210 208 237 235 225 231 245
156 154 170 159 172 186 175 163 151 145 138 131 115 102 94 87 77 70 60 48 49 50 39 15 330 267 241 231 222 218 219 219 218 219 219 218 219 215 245 231 223 233 227 245
135 124 118 153 162 160 159 145 137 131 123 115 105 95 81 72 67 58 47 35 28 27 21 13 358 329 250 230 225 220 220 223 226 228 227 225 227 234 227 225 231 225 246 248
155 135 155 156 154 150 145 136 136 128 120 107 96 81 72 62 48 39 34 28 23 20 20 18 355 313 268 250 242 235 234 234 233 234 232 231 233 233 232 233 232 236 239 240
143 147 146 156 147 150 146 148 151 148 152 144 122 91 53 29 21 17 8 4 10 12 11 10 348 282 267 261 252 245 244 244 244 242 239 238 237 235 235 236 237 238 240 244
123 117 131 131 137 138 139 139 142 137 133 126 104 71 50 28 16 6 359 354 347 341 339 336 331 314 292 274 261 255 253 252 248 244 242 241 240 240 242 243 244 246 248 250
137 138 147 145 146 146 141 138 135 127 127 118 112 76 334 328 338 336 330 327 317 306 306 309 309 307 303 293 277 264 259 258 257 255 254 251 250 249 249 250 251 252 253 253
129 131 133 141 144 148 144 141 141 138 141 192 255 281 299 306 312 312 307 303 299 296 296 298 295 291 288 285 282 277 267 260 258 259 259 258 257 257 257 257 258 259 259 257
126 128 131 141 151 162 168 179 197 193 199 222 290 327 8 11 10 357 343 335 330 324 318 315 311 306 302 297 293 290 284 276 268 263 261 260 260 261 261 261 261 261 260 261
133 132 136 138 144 148 153 154 155 150 137 126 115 101 77 50 34 18 4 350 347 339 331 326 325 324 321 316 311 304 295 287 280 274 268 266 265 265 266 267 268 268 267 265
119 122 125 132 138 141 140 136 135 134 128 120 95 27 360 348 335 327 322 322 323 321 320 318 317 316 314 311 308 304 300 296 290 282 275 271 268 266 266 266 266 267 267 267
127 129 131 137 146 148 149 149 149 157 200 283 299 300 300 301 302 302 300 302 303 304 304 304 305 305 304 303 302 300 297 293 290 287 284 279 275 271 269 269 269 269 268 267
153 153 152 161 172 180 187 196 217 243 269 286 293 297 300 302 300 298 295 295 295 297 297 299 299 298 298 297 295 292 290 288 286 283 281 279 278 276 275 275 274 272 270 269
172 171 180 189 198 206 209 219 234 251 269 283 293 299 302 301 300 298 295 293 291 291 292 295 296 297 296 295 294 292 289 288 286 284 282 281 280 278 278 277 277 276 273 271
226 222 219 220 225 227 237 252 266 277 286 293 299 303 306 308 310 309 305 300 296 295 295 296 296 296 296 296 295 293 291 289 287 286 285 284 283 283 283 281 279 278 277 275
256 260 258 255 260 269 277 288 299 303 310 317 317 317 316 316 313 314 312 308 303 302 302 303 304 304 304 304 301 300 299 297 295 293 291 289 288 286 284 281 280 279 278 277
Wind_Speed_850mb
4 9 11 13 22 24 24 45 24 47 37 57 19 22 37 45 41 35 35 39 45 53 56 54 52 49 46 45 46 46 48 46 44 44 48 58 61 64 62 58 51 51 52 50
5 6 10 2 20 38 43 42 27 42 26 29 14 40 46 67 45 52 46 54 44 48 54 56 52 49 48 49 48 48 49 47 47 49 57 62 65 64 62 58 56 55 51 45
25 12 11 10 42 25 18 22 34 33 69 13 15 20 49 64 45 56 74 63 46 44 58 59 56 52 53 52 51 51 49 50 53 56 61 65 65 63 61 62 60 56 50 45
7 8 19 26 22 36 44 40 37 43 8 16 44 65 64 63 58 69 65 52 44 41 51 62 59 57 55 55 55 54 55 57 59 62 65 66 64 63 64 61 57 53 48 42
10 6 17 45 9 13 19 49 34 36 20 23 48 34 60 75 62 65 68 63 56 51 49 55 62 62 60 61 61 62 63 63 63 64 67 67 68 67 64 60 56 50 43 38
6 15 30 3 34 34 11 44 24 36 31 32 34 15 32 59 50 59 64 64 61 50 50 49 54 65 68 69 69 70 69 68 66 66 67 67 68 67 63 57 50 47 43 39
11 14 17 13 11 46 20 14 21 32 47 33 21 42 38 29 27 29 34 42 46 47 51 51 48 59 73 74 76 71 69 68 70 70 70 68 66 63 60 56 53 49 43 37
7 22 39 14 9 42 17 20 12 11 5 27 46 46 37 37 36 33 33 33 36 38 40 45 46 52 70 78 75 70 70 73 75 73 72 69 66 63 60 57 54 49 42 34
25 18 4 41 11 28 17 19 17 9 6 6 8 11 17 24 29 30 29 28 30 33 32 34 40 46 60 71 75 72 75 77 77 75 72 70 67 65 64 60 55 48 37 29
9 8 11 33 37 31 23 18 15 13 11 9 9 11 12 14 16 20 21 18 20 21 22 27 33 41 53 62 68 72 78 80 78 77 75 71 69 67 65 62 55 39 34 45
5 3 2 19 51 32 28 17 14 12 11 9 7 6 1 3 7 10 12 13 12 10 8 13 23 34 44 50 60 70 75 77 77 77 75 74 73 71 65 54 40 40 52 36
14 22 10 9 46 31 21 23 20 16 16 14 13 12 12 10 9 8 9 11 11 9 7 6 12 22 32 40 50 62 71 73 74 74 76 76 75 70 61 50 56 59 47 49
7 26 12 11 32 35 34 31 25 21 18 16 16 15 14 16 15 12 10 11 12 12 10 7 5 8 17 27 40 51 60 66 71 74 72 70 70 71 70 67 65 64 59 52
36 34 21 36 23 33 32 29 24 22 24 24 22 20 18 19 17 15 16 17 15 13 11 10 8 5 11 24 36 47 55 61 65 68 75 78 79 79 70 75 74 65 50 64
22 10 15 25 39 33 32 26 28 28 23 18 16 15 14 14 14 17 17 18 17 16 13 9 6 7 11 20 33 45 53 60 66 70 74 77 76 74 73 71 70 66 63 60
20 16 23 33 35 32 29 25 25 24 20 16 10 7 8 11 12 13 14 15 15 14 13 12 7 8 12 19 28 37 44 49 55 60 66 69 70 73 74 74 73 72 71 65
43 36 43 47 43 41 37 31 24 19 15 11 8 7 8 7 10 12 12 12 13 13 13 13 12 13 15 18 22 28 37 44 50 57 62 66 70 74 75 76 76 75 72 66
34 42 39 36 33 31 28 23 18 14 10 7 4 2 4 8 11 11 11 10 12 14 15 15 17 18 19 20 22 27 34 41 48 54 59 66 70 72 73 75 76 76 74 70
33 33 30 25 23 18 16 13 9 5 3 2 4 5 7 10 11 12 14 16 17 18 19 20 22 23 25 26 28 31 34 40 47 54 59 64 68 71 74 76 77 76 75 74
23 20 19 16 15 13 9 6 4 3 2 2 3 3 3 4 6 8 10 13 16 19 22 25 27 29 31 33 34 36 38 42 47 51 57 64 68 71 74 75 76 78 75 78
20 20 18 16 14 13 11 10 9 9 11 13 11 9 8 8 9 10 12 13 14 15 19 22 24 25 27 30 33 35 38 40 43 47 53 59 64 70 75 78 79 79 79 79
19 18 16 15 13 13 15 17 16 14 11 8 4 4 7 9 12 14 16 18 19 21 23 26 29 31 33 35 37 38 40 43 45 48 52 57 62 66 69 71 73 73 74 75
18 17 17 16 16 15 15 12 9 5 2 4 7 11 13 15 18 20 23 25 27 30 33 34 37 39 41 43 45 46 47 47 50 53 55 56 58 61 64 65 65 67 67 68
16 17 19 17 16 14 12 10 8 8 9 11 14 17 20 24 30 32 34 38 41 42 44 44 44 46 47 46 47 48 50 51 52 53 53 55 54 54 54 54 55 55 56 57
11 11 12 12 12 13 13 13 12 13 15 17 21 25 29 33 36 40 43 45 46 46 45 45 47 48 48 47 47 48 48 49 49 49 48 47 46 46 46 47 48 50 51 52
7 10 12 14 15 15 15 15 16 17 20 23 28 30 33 37 40 45 50 53 51 49 47 45 44 44 44 44 44 44 44 43 43 43 42 41 41 41 42 43 44 45 47 47
14 16 17 17 17 16 14 13 14 19 20 19 21 25 27 29 29 30 36 42 43 41 39 38 37 37 36 35 34 33 32 33 34 35 35 36 36 36 37 39 40 41 42 44
Wind_Direction_850mb
17 144 144 172 191 182 194 221 205 240 229 260 214 258 281 294 297 289 288 280 262 237 227 224 222 221 225 225 224 219 214 209 202 198 193 191 195 197 195 204 205 198 194 188
223 119 140 184 211 201 211 221 222 241 267 255 259 245 254 261 270 277 278 286 269 247 235 230 228 225 222 220 218 214 212 206 199 195 191 193 195 197 198 198 193 192 188 188
235 148 91 309 226 206 205 207 208 231 244 160 233 224 245 260 260 277 279 270 272 261 244 236 233 228 221 217 215 213 210 207 203 199 196 195 196 197 196 193 190 188 187 189
160 83 211 261 165 215 224 234 221 244 249 213 234 249 265 271 266 266 272 270 272 278 257 245 235 227 221 217 216 213 210 207 205 202 199 197 197 195 193 192 191 191 191 192
160 186 300 273 209 154 179 248 232 244 241 228 254 264 263 259 260 265 267 275 276 273 271 254 242 231 223 219 216 213 210 207 204 201 198 196 194 193 193 193 194 195 194 198
142 209 230 344 207 170 125 268 190 201 216 217 197 225 251 262 265 262 264 270 273 274 275 266 245 234 227 222 218 216 211 207 203 200 199 199 198 196 197 196 197 198 200 201
178 222 273 238 180 156 190 253 208 215 230 213 197 231 254 253 266 274 271 269 271 269 267 266 251 233 228 225 224 220 213 207 205 203 203 202 201 201 199 198 198 201 204 208
101 218 253 164 81 179 205 205 194 206 226 222 241 246 254 270 278 282 282 278 279 276 269 258 250 239 230 228 226 219 213 209 206 204 203 202 203 201 200 201 203 204 207 211
188 210 226 186 185 204 184 205 221 212 206 231 272 286 282 282 284 286 286 286 281 280 272 259 248 241 235 231 226 219 213 210 207 205 205 204 204 205 205 204 206 207 214 233
106 223 207 200 208 213 208 208 211 223 218 224 246 268 286 301 303 309 315 309 293 285 273 263 253 243 235 232 226 219 215 211 208 207 206 207 207 209 210 209 206 216 231 231
291 288 324 232 212 215 203 189 182 185 186 188 203 201 179 0 339 334 326 326 320 311 283 257 254 250 243 234 225 218 214 212 209 209 210 210 210 212 211 207 231 243 229 232
215 193 165 203 212 199 179 174 167 169 154 143 135 124 110 92 79 61 46 43 41 32 3 309 269 255 246 234 224 218 214 212 212 213 213 213 214 210 208 237 235 225 231 245
156 154 170 159 172 186 175 163 151 145 138 131 115 102 94 87 77 70 60 48 49 50 39 15 330 267 241 231 222 218 219 219 218 219 219 218 219 215 245 231 223 233 227 245
135 124 118 153 162 160 159 145 137 131 123 115 105 95 81 72 67 58 47 35 28 27 21 13 358 329 250 230 225 220 220 223 226 228 227 225 227 234 227 225 231 225 246 248
155 135 155 156 154 150 145 136 136 128 120 107 96 81 72 62 48 39 34 28 23 20 20 18 355 313 268 250 242 235 234 234 233 234 232 231 233 233 232 233 232 236 239 240
143 147 146 156 147 150 146 148 151 148 152 144 122 91 53 29 21 17 8 4 10 12 11 10 348 282 267 261 252 245 244 244 244 242 239 238 237 235 235 236 237 238 240 244
123 117 131 131 137 138 139 139 142 137 133 126 104 71 50 28 16 6 359 354 347 341 339 336 331 314 292 274 261 255 253 252 248 244 242 241 240 240 242 243 244 246 248 250
137 138 147 145 146 146 141 138 135 127 127 118 112 76 334 328 338 336 330 327 317 306 306 309 309 307 303 293 277 264 259 258 257 255 254 251 250 249 249 250 251 252 253 253
129 131 133 141 144 148 144 141 141 138 141 192 255 281 299 306 312 312 307 303 299 296 296 298 295 291 288 285 282 277 267 260 258 259 259 258 257 257 257 257 258 259 259 257
126 128 131 141 151 162 168 179 197 193 199 222 290 327 8 11 10 357 343 335 330 324 318 315 311 306 302 297 293 290 284 276 268 263 261 260 260 261 261 261 261 261 260 261
133 132 136 138 144 148 153 154 155 150 137 126 115 101 77 50 34 18 4 350 347 339 331 326 325 324 321 316 311 304 295 287 280 274 268 266 265 265 266 267 268 268 267 265
119 122 125 132 138 141 140 136 135 134 128 120 95 27 360 348 335 327 322 322 323 321 320 318 317 316 314 311 308 304 300 296 290 282 275 271 268 266 266 266 266 267 267 267
127 129 131 137 146 148 149 149 149 157 200 283 299 300 300 301 302 302 300 302 303 304 304 304 305 305 304 303 302 300 297 293 290 287 284 279 275 271 269 269 269 269 268 267
153 153 152 161 172 180 187 196 217 243 269 286 293 297 300 302 300 298 295 295 295 297 297 299 299 298 298 297 295 292 290 288 286 283 281 279 278 276 275 275 274 272 270 269
172 171 180 189 198 206 209 219 234 251 269 283 293 299 302 301 300 298 295 293 291 291 292 295 296 297 296 295 294 292 289 288 286 284 282 281 280 278 278 277 277 276 273 271
226 222 219 220 225 227 237 252 266 277 286 293 299 303 306 308 310 309 305 300 296 295 295 296 296 296 296 296 295 293 291 289 287 286 285 284 283 283 283 281 279 278 277 275
256 260 258 255 260 269 277 288 299 303 310 317 317 317 316 316 313 314 312 308 303 302 302 303 304 304 304 304 301 300 299 297 295 293 291 289 288 286 284 281 280 279 278 277